Time,TemperatureF,DewpointF,PressureIn,WindDirection,WindDirectionDegrees,WindSpeedMPH,WindSpeedGustMPH,Humidity,HourlyPrecipIn,Conditions,Clouds,dailyrainin,SoftwareType,DateUTC
2013-09-12 00:44:00,75.0,67.0,29.99,WNW,301,0.0,1.0,76,0.00,,,0.00,,2013-09-12 04:44:00,
2013-09-12 00:54:00,75.0,67.0,30.01,NNE,22,2.0,8.0,77,0.00,,,0.00,,2013-09-12 04:54:00,
2013-09-12 01:13:00,72.0,68.0,29.99,NNW,348,2.0,7.0,86,0.02,,,0.02,,2013-09-12 05:13:00,
2013-09-12 01:23:00,71.0,67.0,29.99,NW,325,2.0,7.0,88,0.04,,,0.04,,2013-09-12 05:23:00,
2013-09-12 01:43:00,70.0,67.0,30.00,WNW,292,1.0,5.0,91,0.06,,,0.06,,2013-09-12 05:43:00,
2013-09-12 01:52:00,70.0,68.0,29.98,WNW,292,0.0,0.0,92,0.08,,,0.08,,2013-09-12 05:52:00,
2013-09-12 02:12:00,70.0,68.0,29.97,WNW,292,0.0,0.0,93,0.06,,,0.08,,2013-09-12 06:12:00,
2013-09-12 02:21:00,70.0,68.0,29.97,WNW,292,0.0,0.0,94,0.03,,,0.08,,2013-09-12 06:21:00,
2013-09-12 02:33:00,70.0,68.0,29.97,WNW,292,0.0,0.0,94,0.03,,,0.08,,2013-09-12 06:33:00,
2013-09-12 02:42:00,70.0,68.0,29.97,WNW,292,0.0,0.0,94,0.03,,,0.08,,2013-09-12 06:42:00,
2013-09-12 03:44:00,70.0,68.0,29.96,NW,313,3.0,5.0,94,0.02,,,0.11,,2013-09-12 07:44:00,
2013-09-12 03:52:00,70.0,68.0,29.97,NW,316,4.0,7.0,94,0.01,,,0.11,,2013-09-12 07:52:00,
2013-09-12 04:11:00,70.0,68.0,29.96,NW,318,2.0,4.0,94,0.01,,,0.12,,2013-09-12 08:11:00,
2013-09-12 04:22:00,70.0,68.0,29.95,NW,317,1.0,3.0,94,0.02,,,0.13,,2013-09-12 08:22:00,
2013-09-12 04:52:00,69.0,68.0,29.96,WNW,300,0.0,2.0,95,0.05,,,0.16,,2013-09-12 08:52:00,
2013-09-12 05:12:00,69.0,68.0,29.95,NW,321,2.0,5.0,96,0.09,,,0.21,,2013-09-12 09:12:00,
2013-09-12 05:21:00,69.0,68.0,29.95,NW,321,2.0,5.0,96,0.09,,,0.21,,2013-09-12 09:21:00,
2013-09-12 05:33:00,69.0,68.0,29.95,NW,321,2.0,5.0,96,0.09,,,0.21,,2013-09-12 09:33:00,
2013-09-12 05:53:00,69.0,68.0,29.95,WNW,302,1.0,5.0,96,0.14,,,0.30,,2013-09-12 09:53:00,
2013-09-12 06:12:00,69.0,68.0,29.97,West,275,3.0,6.0,96,0.10,,,0.31,,2013-09-12 10:12:00,
2013-09-12 06:23:00,69.0,68.0,29.97,WNW,287,4.0,7.0,96,0.08,,,0.31,,2013-09-12 10:23:00,
2013-09-12 06:53:00,69.0,68.0,29.97,West,263,4.0,10.0,97,0.05,,,0.34,,2013-09-12 10:53:00,
2013-09-12 07:03:00,69.0,68.0,29.97,West,263,4.0,10.0,97,0.05,,,0.34,,2013-09-12 11:03:00,
2013-09-12 07:52:00,68.0,67.0,29.95,WNW,289,2.0,4.0,96,0.00,,,0.34,,2013-09-12 11:52:00,
2013-09-12 08:12:00,68.0,67.0,29.96,WNW,288,2.0,4.0,96,0.00,,,0.34,,2013-09-12 12:12:00,
2013-09-12 08:22:00,68.0,67.0,29.96,WNW,294,1.0,4.0,96,0.00,,,0.34,,2013-09-12 12:22:00,
2013-09-12 08:42:00,68.0,67.0,29.96,WNW,298,3.0,6.0,95,0.00,,,0.34,,2013-09-12 12:42:00,
2013-09-12 08:52:00,68.0,67.0,29.97,WNW,294,4.0,6.0,95,0.00,,,0.34,,2013-09-12 12:52:00,
2013-09-12 09:11:00,68.0,67.0,29.97,West,275,3.0,5.0,95,0.00,,,0.34,,2013-09-12 13:11:00,
2013-09-12 09:22:00,68.0,67.0,29.97,West,275,4.0,7.0,96,0.00,,,0.34,,2013-09-12 13:22:00,
2013-09-12 09:52:00,69.0,68.0,29.97,WNW,293,4.0,6.0,96,0.00,,,0.34,,2013-09-12 13:52:00,
2013-09-12 10:11:00,69.0,68.0,29.98,WNW,302,5.0,8.0,97,0.00,,,0.34,,2013-09-12 14:11:00,
2013-09-12 10:22:00,69.0,68.0,29.98,WNW,294,5.0,7.0,96,0.00,,,0.34,,2013-09-12 14:22:00,
2013-09-12 10:42:00,69.0,68.0,29.98,West,277,4.0,7.0,96,0.00,,,0.34,,2013-09-12 14:42:00,
2013-09-12 10:52:00,70.0,69.0,29.98,West,279,3.0,6.0,96,0.00,,,0.34,,2013-09-12 14:52:00,
2013-09-12 11:11:00,70.0,69.0,29.98,NW,307,3.0,6.0,96,0.00,,,0.34,,2013-09-12 15:11:00,
2013-09-12 11:22:00,70.0,69.0,29.98,WNW,302,4.0,6.0,96,0.00,,,0.34,,2013-09-12 15:22:00,
2013-09-12 11:43:00,70.0,68.0,29.98,West,276,4.0,6.0,95,0.00,,,0.34,,2013-09-12 15:43:00,
2013-09-12 11:53:00,70.0,68.0,29.98,WNW,300,3.0,5.0,94,0.00,,,0.34,,2013-09-12 15:53:00,
2013-09-12 12:13:00,71.0,69.0,29.98,WNW,292,3.0,6.0,94,0.00,,,0.34,,2013-09-12 16:13:00,
2013-09-12 12:23:00,71.0,69.0,29.98,WNW,299,3.0,6.0,93,0.00,,,0.34,,2013-09-12 16:23:00,
2013-09-12 12:43:00,71.0,69.0,29.98,West,280,3.0,5.0,92,0.00,,,0.34,,2013-09-12 16:43:00,
2013-09-12 12:53:00,72.0,69.0,29.97,WNW,286,2.0,7.0,91,0.00,,,0.34,,2013-09-12 16:53:00,
2013-09-12 13:03:00,72.0,69.0,29.97,WNW,286,2.0,7.0,91,0.00,,,0.34,,2013-09-12 17:03:00,
2013-09-12 13:12:00,72.0,69.0,29.97,WNW,286,2.0,7.0,91,0.00,,,0.34,,2013-09-12 17:12:00,
2013-09-12 13:23:00,72.0,69.0,29.97,WNW,286,2.0,7.0,91,0.00,,,0.34,,2013-09-12 17:23:00,
2013-09-12 16:12:00,82.0,60.0,29.90,West,265,8.0,15.0,47,0.00,,,0.34,,2013-09-12 20:12:00,
2013-09-12 16:22:00,85.0,59.0,29.89,WNW,300,10.0,16.0,42,0.00,,,0.34,,2013-09-12 20:22:00,
2013-09-12 16:42:00,81.0,59.0,29.89,NNW,331,11.0,17.0,47,0.00,,,0.34,,2013-09-12 20:42:00,
2013-09-12 16:52:00,82.0,59.0,29.89,West,281,13.0,20.0,45,0.00,,,0.34,,2013-09-12 20:52:00,
2013-09-12 17:11:00,83.0,59.0,29.88,NW,312,13.0,20.0,45,0.00,,,0.34,,2013-09-12 21:11:00,
2013-09-12 17:22:00,82.0,56.0,29.88,NW,325,15.0,22.0,41,0.00,,,0.34,,2013-09-12 21:22:00,
2013-09-12 17:43:00,82.0,56.0,29.89,WNW,300,13.0,20.0,41,0.00,,,0.34,,2013-09-12 21:43:00,
2013-09-12 17:54:00,80.0,51.0,29.90,NNW,338,14.0,20.0,37,0.00,,,0.34,,2013-09-12 21:54:00,
2013-09-12 18:04:00,80.0,51.0,29.90,NNW,338,14.0,20.0,37,0.00,,,0.34,,2013-09-12 22:04:00,
2013-09-12 18:13:00,80.0,51.0,29.90,NNW,338,14.0,20.0,37,0.00,,,0.34,,2013-09-12 22:13:00,
2013-09-12 18:24:00,80.0,51.0,29.90,NNW,338,14.0,20.0,37,0.00,,,0.34,,2013-09-12 22:24:00,
2013-09-12 21:11:00,67.0,59.0,29.97,NNE,15,4.0,9.0,76,0.00,,,0.34,,2013-09-13 01:11:00,
2013-09-12 21:22:00,66.0,59.0,29.98,NNE,19,3.0,6.0,77,0.00,,,0.34,,2013-09-13 01:22:00,
2013-09-12 21:42:00,65.0,58.0,29.98,NNE,21,3.0,7.0,79,0.00,,,0.34,,2013-09-13 01:42:00,
2013-09-12 21:52:00,64.0,58.0,29.99,NNE,24,2.0,5.0,81,0.00,,,0.34,,2013-09-13 01:52:00,
2013-09-12 22:12:00,64.0,58.0,30.00,NNE,22,1.0,4.0,82,0.00,,,0.34,,2013-09-13 02:12:00,
2013-09-12 22:22:00,63.0,58.0,30.00,NNE,26,1.0,4.0,83,0.00,,,0.34,,2013-09-13 02:22:00,
2013-09-12 22:43:00,63.0,58.0,30.01,NNE,30,1.0,3.0,83,0.00,,,0.34,,2013-09-13 02:43:00,
2013-09-12 22:53:00,62.0,57.0,30.01,NNE,28,0.0,2.0,84,0.00,,,0.34,,2013-09-13 02:53:00,
2013-09-12 23:12:00,61.0,57.0,30.01,NNE,28,0.0,2.0,86,0.00,,,0.34,,2013-09-13 03:12:00,
2013-09-12 23:22:00,61.0,57.0,30.01,NNE,28,0.0,1.0,87,0.00,,,0.34,,2013-09-13 03:22:00,
2013-09-12 23:44:00,61.0,57.0,30.01,NNE,28,0.0,1.0,87,0.00,,,0.34,,2013-09-13 03:44:00,
2013-09-12 23:55:00,60.0,56.0,30.01,NNE,28,0.0,1.0,88,0.00,,,0.34,,2013-09-13 03:55:00,